Regional Weather Roundup
Issued by NWS

Home | Current Version | Previous Version | Graphics & Text | Print | Product List | Glossary On
Versions: 1 2 3 4 5 6 7 8 9 10 11 12 13 14 15 16 17 18 19 20 21 22 23 24 25 26 27 28 29 30 31 32 33 34 35 36 37 38 39 40 41 42 43 44 45 46 47 48 49 50
000
ASUS45 KTFX 020404
RWRMT
MONTANA HOURLY WEATHER ROUNDUP
NATIONAL WEATHER SERVICE GREAT FALLS MT
1004 PM MDT FRI AUG 1 2014

NOTE: "FAIR" INDICATES FEW OR NO CLOUDS BELOW 12000 FEET WITH NO
SIGNIFICANT WEATHER AND/OR OBSTRUCTIONS TO VISIBILITY.

* THESE STATIONS ARE NOT UNDER NWS QUALITY CONTROL. THEY DO NOT
   REPORT WEATHER SUCH AS PRECIPITATION OR FOG.

MTZ001>007-043-020500-
WEST OF THE DIVIDE
CITY           SKY/WX    TMP DP  RH WIND       PRES   REMARKS
KALISPELL      CLOUDY    77  52  42 S15G24    30.10R
MISSOULA       CLOUDY    77  45  32 N6        30.10R
BUTTE          CLOUDY    72  41  33 N6        30.28R
MULLAN PASS    MOCLDY    64  39  40 SE6       30.25F
* ESSEX        N/A      N/A N/A N/A N/A        N/A
* LINCOLN      N/A       72  44  37 W7G18      N/A
* LOOKOUT PASS N/A       62  52  70 N1         N/A
* POLSON       N/A       72  49  44 NW1G12     N/A
* RONAN APT    CLOUDY    66  59  78 N/A        N/A
* SEELEY LAKE  N/A       61  55  81 NE8G21     N/A
* THOMP F APT  CLOUDY    63  42  46 N3G15      N/A
$$

MTZ008-052>055-020500-
SOUTHWEST MONTANA
CITY           SKY/WX    TMP DP  RH WIND       PRES   REMARKS
BOZEMAN        MOCLDY    72  45  38 SW3       30.21R
DILLON         CLOUDY    72  45  38 SE10      30.26R
W YELLOWSTONE  CLOUDY    54  50  86 CALM      30.38R
* THREE FORKS  CLOUDY    72  55  55 N/A        N/A
* BOULDER HILL N/A       69  41  36 W4G9       N/A
* MONIDA PASS  N/A       60  45  58 E8         N/A
* RAYNOLDS PAS N/A       59  43  56 S6         N/A
* WHITEHALL    N/A       77  38  25 E5G11      N/A
* WISE RIVER   N/A       61  50  67 SW10G15    N/A
$$

MTZ009>010-012-014-046-048-049-054-020500-
EAST SLOPES AND CENTRAL MONTANA
CITY           SKY/WX    TMP DP  RH WIND       PRES   REMARKS
CUT BANK       CLOUDY    72  52  49 N8        30.19R
GREAT FALLS    CLOUDY    77  48  36 NE17      30.14R
MALMSTROM AFB  CLOUDY    77  50  39 NE23      30.15R
* CONRAD       CLOUDY    70  59  68 N/A        N/A
* DEARBORN     N/A       84  41  22 N8G13      N/A
* EAST GLACIER N/A       66  57  73 E6         N/A
* MONARCH      N/A       68  38  33 E10        N/A
* PENDROY      N/A       71  56  59 N4         N/A
* SAINT MARY   N/A       62  58  87 S2G9       N/A
* SWEET GRASS  N/A       73  50  44 E12        N/A
$$

MTZ011-013-016-021-035-040-045-047-050-051-020500-
NORTH CENTRAL MONTANA
CITY           SKY/WX    TMP DP  RH WIND       PRES   REMARKS
HAVRE          CLOUDY    75  57  54 E16       30.15R
LEWISTOWN      MOCLDY    75  43  32 E7        30.20R
* CHESTER      N/A       70  58  66 NE5G10     N/A
* DENTON       N/A       72  40  31 NE7        N/A
* GEYSER       N/A       75  43  32 E8         N/A
* JUDITH GAP   N/A       71  45  39 E13        N/A
* LOMA         N/A       76  47  36 N17G26     N/A
$$

MTZ017>020-022>027-061-062-020500-
NORTHEAST MONTANA
CITY           SKY/WX    TMP DP  RH WIND       PRES   REMARKS
GLASGOW        MOCLDY    70  55  59 NE9       30.12R
GLENDIVE       PTCLDY    73  54  51 NE7       30.12R
JORDAN         PTCLDY    75  45  34 CALM      30.10R
SIDNEY         PTCLDY    70  54  57 NW17G25   30.14R
WOLF POINT     MOCLDY    66  55  68 NE10      30.11R
* BEAVER HILL  N/A       71  59  66 E7         N/A
* CIRCLE       N/A       77  53  43 N1G6       N/A
* LINDSAY DVD  N/A       69  53  57 E4         N/A
* NAVAJO       N/A       63  58  84 NW9G14     N/A
$$

MTZ028>042-056>058-020500-
SOUTHCENTRAL AND SOUTHEAST MONTANA
CITY           SKY/WX    TMP DP  RH WIND       PRES   REMARKS
BAKER          PTCLDY    70  57  64 E10       30.13R
BILLINGS       FAIR      81  43  26 W14G20    30.16R
LIVINGSTON     PTCLDY    72  43  35 CALM      30.20R
MILES CITY     PTCLDY    75 -26   1 NE9       30.09R
* LAUREL APT   PTCLDY    75  43  32 N/A        N/A
* ROUNDUP APT  PTCLDY    79  36  21 N/A        N/A
* ALZADA       N/A       77  48  36 VRB8       N/A
* HYSHAM       N/A       74  40  29 E1         N/A
* LAME DEER    N/A       72  40  31 N9         N/A
* REED POINT   N/A       71  47  43 N/A        N/A
* ROSCOE HILL  N/A       72  37  28 SW8G14     N/A
$$

REGIONAL REPORTS...DAKOTAS
CITY           SKY/WX    TMP DP  RH WIND       PRES   REMARKS
WILLISTON      CLEAR     68  55  63 CALM      30.10R
DICKINSON      CLEAR     64  57  78 NE6       30.11R
CROSBY         N/A       64  64 100 S3        30.10R
TIOGA          CLEAR     59  59 100 CALM      30.14R
WATFORD CITY   CLEAR     63  59  87 CALM      30.09R
BISMARCK       MOCLDY    68  63  84 N3        30.08R
GRAND FORKS    PTCLDY    64  61  90 S6        30.06R
FARGO          CLEAR     68  61  78 CALM      30.07R
BUFFALO SD     CLEAR     72  57  59 NE18      30.03R
RAPID CITY     PTCLDY    72  48  43 W7        30.08R
$$

REGIONAL REPORTS...WYOMING/IDAHO/WASHINGTON
CITY           SKY/WX    TMP DP  RH WIND       PRES   REMARKS
GILLETTE       PTCLDY    64  45  50 CALM      30.17R
SHERIDAN       MOCLDY    64  50  61 CALM      30.16R
CODY           CLOUDY    68  46  45 SW15G20   30.27S
YELLOWSTONE LA CLOUDY    54  45  72 CALM      30.48S
SALMON         CLOUDY    64  54  70 SW3       30.18R
MULLAN PASS    MOCLDY    64  39  40 SE6       30.25S
SAND POINT     MOCLDY    79  54  42 N3        30.00R
SPOKANE        PTCLDY    82  46  28 SE13G21   30.00R
$$

REGIONAL REPORTS...SASKATCHEWAN
CITY           SKY/WX    TMP DP  RH WIND       PRES   REMARKS
REGINA         MOCLDY    63  61  93 NE12      30.10S

$$



USA.gov is the U.S. government's official web portal to all federal, state and local government web resources and services.